This is the latest recevied weather packets stored in our database for station/object WB4MOZ-3. If no packets are shown the sender has not sent any weather packets the latest 1 day(s).
| Time | Temp. | Humidity | Pressure | Rain* | Wind** | Luminosity | Snow |
|---|---|---|---|---|---|---|---|
| 1778035178 | 26.11° C | 81% | 1014.2 hPa | 0 mm | 1.34 m/s, 57° | - | - |
| 1778034877 | 26.11° C | 83% | 1014.1 hPa | 0 mm | 2.24 m/s, 51° | - | - |
| 1778034577 | 26.11° C | 82% | 1014.1 hPa | 0 mm | 2.24 m/s, 63° | - | - |
| 1778034277 | 26.11° C | 82% | 1014 hPa | 0 mm | 2.24 m/s, 77° | - | - |
| 1778033977 | 26.11° C | 81% | 1013.9 hPa | 0 mm | 2.24 m/s, 91° | - | - |
| 1778033677 | 26.11° C | 82% | 1013.9 hPa | 0 mm | 2.24 m/s, 77° | - | - |
| 1778033377 | 26.11° C | 83% | 1013.8 hPa | 0 mm | 2.68 m/s, 92° | - | - |
| 1778033077 | 26.11° C | 82% | 1013.7 hPa | 0 mm | 2.24 m/s, 76° | - | - |
| 1778032777 | 26.11° C | 82% | 1013.7 hPa | 0 mm | 2.68 m/s, 77° | - | - |
| 1778032478 | 26.11° C | 82% | 1013.6 hPa | 0 mm | 2.68 m/s, 92° | - | - |
| 1778032177 | 26.11° C | 82% | 1013.7 hPa | 0 mm | 2.24 m/s, 56° | - | - |
| 1778031877 | 26.11° C | 81% | 1013.6 hPa | 0 mm | 2.24 m/s, 75° | - | - |
| 1778031577 | 26.11° C | 80% | 1013.5 hPa | 0 mm | 3.13 m/s, 79° | - | - |
| 1778031304 | 26.11° C | 80% | 1013.2 hPa | 0 mm | 2.68 m/s, 69° | - | - |
| 1778031304 | 26.11° C | 79% | 1013.2 hPa | 0 mm | 2.68 m/s, 92° | - | - |
| 1778031277 | 26.11° C | 80% | 1013.2 hPa | 0 mm | 2.24 m/s, 75° | - | - |
| 1778030977 | 26.11° C | 80% | 1013.2 hPa | 0 mm | 2.68 m/s, 69° | - | - |
| 1778030677 | 26.11° C | 79% | 1013.2 hPa | 0 mm | 2.68 m/s, 92° | - | - |
| 1778030377 | 26.11° C | 79% | 1013 hPa | 0 mm | 2.68 m/s, 107° | - | - |
| 1778030077 | 26.11° C | 78% | 1013 hPa | 0 mm | 2.24 m/s, 72° | - | - |
| 1778029477 | 26.11° C | 77% | 1012.9 hPa | 0 mm | 3.58 m/s, 83° | - | - |
| 1778029177 | 26.11° C | 76% | 1013 hPa | 0 mm | 2.68 m/s, 84° | - | - |
| 1778028878 | 26.11° C | 76% | 1013.2 hPa | 0 mm | 2.68 m/s, 89° | - | - |
| 1778028768 | 26.11° C | 76% | 1013.2 hPa | 0 mm | 3.58 m/s, 88° | - | - |
| 1778028467 | 26.11° C | 76% | 1013.1 hPa | 0 mm | 3.58 m/s, 81° | - | - |
* Rain latest hour (hover to see other rain measurements)
** Current wind speed in m/s (hover to see current wind gust speed)